Location: Zagreb
(45.8150°N, 15.9819°E)
Time: 13:44:49
(UTC+02:00)

STARLINK-1670 - Pass Details

Date: 20 September 2020
Orbit: 379 x 380 km, 53.0° (Epoch: 20 October)

Event Time Altitude Azimuth Distance (km) Brightness Sun altitude
Exits shadow 04:26:41 28° 20° (NNE) 746 4.7 -23.3°
Drops below altitude 10° 04:28:38 10° 49° (NE) 1,399 6.7 -22.9°
Sets 04:30:47 0° 58° (ENE) 2,254 8.2 -22.6°
